Hourly Data Report for July 30, 2021

NORTH CAPE
PRINCE EDWARD ISLAND
Current Station Operator: ECCC - MSC

47°03'29.000" N
63°59'55.000" W
7.60 m
8300516
71987
WNE

Download Data

Hourly Data (July 2021)
Hourly Data Report for July 30, 2021
TIME
LST
Temp Definition
°C
Dew Point Definition
°C
Rel Hum Definition
%
Precip. Amount Definition
mm

Wind Dir Definition
10's deg

Wind Spd Definition
km/h
Visibility Definition
km
Stn Press Definition
kPa
Hmdx Definition


Wind Chill Definition


Weather Definition


00:00 18.0 8.3 53 0.0 21 18   100.84     LegendNANA
01:00 17.5 9.9 61 0.0 20 23   100.80     LegendNANA
02:00 17.6 11.2 66 0.0 22 25   100.76     LegendNANA
03:00 17.6 14.0 79 0.0 22 37   100.74     LegendNANA
04:00 16.9 14.1 83 0.0 22 33   100.71     LegendNANA
05:00 15.5 14.0 90 0.0 22 28   100.71     LegendNANA
06:00 14.4 13.4 94 1.3 20 17   100.71     LegendNANA
07:00 14.1 13.2 94 1.6 20 17   100.70     LegendNANA
08:00 14.3 13.2 93 1.1 18 13   100.66     LegendNANA
09:00 14.7 13.4 92 0.2 18 12   100.59     LegendNANA
10:00 15.2 13.2 88 0.0 19 14   100.54     LegendNANA
11:00 16.6 14.1 85 0.0 15 16   100.43     LegendNANA
12:00 17.4 13.8 79 0.0 14 23   100.34     LegendNANA
13:00 17.9 14.7 81 0.0 13 26   100.24     LegendNANA
14:00 17.8 12.1 69 0.0 16 17   100.16     LegendNANA
15:00 15.1 14.0 93 1.1 18 8   100.12     LegendNANA
16:00 15.3 14.3 94 2.2 19 3   100.05     LegendNANA
17:00 15.3 14.7 96 5.0 5 11   99.97     LegendNANA
18:00 15.5 14.7 95 4.7 5 17   99.89     LegendNANA
19:00 15.7 14.8 95 1.0 3 25   99.78     LegendNANA
20:00 15.7 14.8 94 0.0 1 15   99.86     LegendNANA
21:00 15.6 14.6 93 0.0 35 13   99.91     LegendNANA
22:00 16.2 14.7 91 0.0 30 16   99.87     LegendNANA
23:00 16.3 14.5 89 0.0 29 15   99.84     LegendNANA

Notes on Data Quality.

Legend

  • E = Estimated
  • M = Missing
  • NA = Not Available*
  • [empty] = Indicates an unobserved value
Date modified: